Aérodrome :
LOGIN :

S'inscrire | Disclaimer

   EN    FR    IT 

 










Légende :    VFR   VFR Marginal   IFR   IFR Intensif   IFR Très Intensif
Visi : 
Plafond : 
>= 8 km
>= 3000ft
5 à 8 km
1000 à 3000 ft
1500m à 5 km
500 à 1000 ft
800 à 1500m
200 à 500 ft
< 800m
< 200 ft
Symboles :   Orages  Brouillard  Fortes neiges  Fortes précipitations  Vent > 20 kt
SIGMETs :   Divers  Orages  Givrage  Turbulence  Onde Orograph.  Cendres Volcan.







- Altitude de l'aérodrome : 3360 ft
- Code IATA : QSF


DAAS - 8 Mai 45

DERNIER METAR :
  • 162300Z 16002KT CAVOK 12/06 Q1029

METARs EXPIRÉS :
  • 162200Z 28002KT CAVOK 12/07 Q1029
  • 162100Z 28002KT CAVOK 14/07 Q1029

TAF TAF DAAS
Valide du 17 à 00h jusqu'au 18 à 00h UTC


162300Z 1700/1724 18008KT 9999 FEW030
PROB30
TEMPO 1703/1706 VRB02KT 3000 BR FEW008
BECMG 1706/1709 28010KT
Pas de NOTAMs connus pour ce terrain.



MET'MAP, la Météo Aéronautique d'un coup d'oeil ! - Copyright ORBIFLY Décembre 2007 - Disclaimer

ORBIFLY MET'MAP TEAM :

Programmation & Développement : Alexandra Zaïnal
Conception & Développement : Baudouin d'Aumeries
Co-Programmation & Développement : Marc-Olivier Méhu
Soutien technique & logistique : Manuel Goepfert

Contact : metmap@orbifly.com




SOURCES & CREDITS :

   NOAA